Temp
-11 -11 -11 -10 -10 -10 -10 -10 -10 -10 -10 -10 -10 -11 -10 -10 -10 -9 -9 -11 -11 -11 -10 -10 -10 -11 -10 -10 -10 -10 -8 -8 -8 -9 -8 -10 -9 -8 -10 -10 -10 -9 -10 -10 -10
-10 -11 -11 -11 -11 -11 -10 -10 -10 -9 -9 -9 -10 -10 -10 -10 -10 -10 -10 -11 -11 -12 -11 -11 -11 -11 -10 -10 -10 -10 -8 -8 -9 -9 -10 -10 -10 -10 -10 -9 -10 -10 -10 -10 -10
-10 -10 -11 -11 -11 -11 -11 -11 -10 -10 -10 -10 -9 -9 -9 -9 -10 -11 -11 -10 -11 -11 -11 -11 -12 -11 -10 -10 -10 -10 -9 -9 -8 -10 -11 -11 -11 -9 -10 -9 -10 -9 -10 -10 -10
-11 -11 -11 -11 -11 -11 -11 -11 -11 -11 -10 -10 -10 -10 -9 -9 -9 -9 -9 -10 -10 -11 -11 -11 -11 -11 -11 -10 -11 -10 -9 -10 -9 -10 -10 -11 -11 -10 -10 -9 -9 -9 -10 -9 -10
-11 -11 -11 -11 -11 -11 -11 -11 -11 -11 -11 -11 -10 -10 -10 -9 -9 -10 -10 -10 -10 -10 -10 -11 -11 -12 -11 -11 -11 -11 -10 -11 -11 -11 -11 -10 -11 -10 -10 -11 -10 -10 -11 -11 -10
-11 -11 -11 -11 -11 -11 -11 -11 -11 -11 -11 -11 -11 -10 -10 -10 -10 -11 -10 -9 -9 -10 -10 -11 -11 -11 -11 -12 -11 -11 -12 -11 -12 -11 -11 -11 -11 -11 -10 -10 -10 -10 -10 -10 -10
-11 -11 -11 -11 -11 -11 -11 -11 -11 -11 -11 -11 -11 -11 -10 -10 -10 -10 -10 -10 -10 -10 -10 -11 -11 -11 -11 -11 -11 -12 -12 -11 -10 -10 -10 -12 -10 -8 -10 -10 -10 -10 -9 -10 -10
-12 -12 -12 -12 -12 -12 -12 -12 -11 -11 -11 -11 -11 -11 -10 -11 -10 -10 -10 -10 -10 -10 -10 -11 -11 -11 -11 -10 -11 -11 -12 -10 -9 -10 -10 -12 -7 -9 -10 -10 -10 -10 -10 -9 -9
-12 -12 -12 -12 -12 -12 -12 -12 -11 -11 -11 -11 -11 -11 -10 -11 -11 -11 -10 -10 -10 -10 -11 -11 -11 -11 -11 -11 -11 -11 -10 -10 -8 -9 -10 -11 -9 -10 -10 -10 -10 -10 -10 -10 -9
-12 -12 -12 -12 -12 -11 -11 -11 -11 -11 -11 -11 -11 -11 -11 -11 -10 -11 -10 -10 -10 -10 -11 -11 -11 -11 -11 -10 -9 -9 -10 -8 -8 -10 -11 -11 -11 -9 -10 -10 -10 -10 -9 -9 -8
-12 -12 -11 -11 -11 -10 -10 -10 -10 -10 -11 -11 -11 -11 -11 -11 -11 -11 -11 -11 -10 -10 -10 -11 -11 -10 -9 -10 -10 -10 -10 -10 -10 -11 -11 -11 -12 -10 -9 -10 -10 -9 -9 -9 -10
-11 -11 -11 -11 -11 -11 -11 -12 -12 -11 -11 -14 -11 -12 -12 -13 -11 -11 -11 -11 -11 -11 -11 -11 -10 -9 -10 -10 -11 -11 -10 -10 -10 -11 -11 -10 -12 -10 -9 -9 -10 -9 -8 -9 -9
-11 -11 -12 -12 -13 -14 -16 -19 -20 -22 -17 -18 -17 -14 -14 -13 -12 -12 -12 -12 -12 -11 -11 -11 -10 -10 -10 -11 -11 -10 -10 -10 -10 -12 -10 -10 -13 -10 -8 -8 -8 -9 -9 -10 -9
-12 -13 -14 -16 -18 -20 -22 -23 -24 -24 -22 -22 -21 -21 -20 -16 -15 -15 -14 -14 -13 -13 -14 -11 -10 -10 -10 -10 -10 -10 -11 -11 -11 -12 -9 -13 -12 -9 -8 -8 -9 -9 -9 -9 -9
-14 -15 -17 -18 -20 -22 -23 -24 -24 -24 -23 -22 -22 -22 -22 -22 -21 -18 -16 -15 -15 -15 -15 -11 -11 -12 -11 -10 -10 -9 -11 -12 -12 -12 -12 -11 -12 -6 -9 -8 -8 -9 -9 -9 -9
-16 -17 -19 -20 -22 -22 -24 -24 -24 -23 -23 -23 -24 -24 -23 -22 -22 -21 -21 -19 -18 -19 -15 -12 -13 -14 -12 -11 -11 -11 -11 -13 -13 -12 -12 -9 -11 -5 -8 -8 -8 -9 -9 -9 -9
-17 -18 -19 -21 -22 -22 -23 -23 -24 -23 -24 -24 -24 -23 -23 -23 -23 -23 -22 -21 -21 -21 -18 -16 -16 -15 -13 -12 -12 -11 -13 -13 -13 -12 -8 -9 -10 -7 -8 -9 -10 -9 -9 -9 -8
-18 -19 -20 -21 -21 -22 -23 -23 -23 -24 -24 -24 -24 -23 -23 -23 -22 -23 -23 -22 -22 -21 -22 -19 -18 -15 -14 -14 -13 -12 -13 -13 -11 -10 -8 -10 -8 -7 -9 -10 -11 -10 -8 -8 -8
-18 -20 -20 -21 -22 -22 -23 -23 -23 -25 -25 -24 -24 -23 -23 -24 -23 -23 -24 -23 -23 -22 -22 -22 -20 -19 -18 -15 -16 -14 -13 -11 -13 -13 -12 -9 -9 -9 -9 -9 -11 -9 -9 -8 -9
-18 -20 -20 -21 -22 -22 -23 -23 -24 -24 -25 -25 -25 -24 -23 -24 -23 -23 -23 -23 -23 -23 -22 -22 -20 -21 -20 -16 -15 -16 -13 -14 -14 -13 -12 -9 -9 -9 -10 -10 -10 -10 -9 -9 -10
-18 -19 -20 -21 -22 -22 -23 -23 -24 -24 -24 -25 -25 -24 -24 -24 -23 -23 -23 -23 -23 -23 -23 -22 -22 -20 -20 -20 -18 -16 -16 -15 -14 -15 -13 -10 -8 -10 -11 -11 -11 -10 -10 -10 -10
-19 -19 -20 -20 -22 -22 -23 -23 -24 -24 -24 -25 -24 -24 -24 -24 -24 -24 -23 -23 -22 -22 -23 -22 -22 -21 -21 -20 -20 -18 -17 -17 -16 -14 -14 -12 -9 -11 -11 -12 -11 -11 -10 -10 -10
-19 -19 -20 -21 -21 -22 -23 -23 -24 -24 -24 -24 -24 -24 -24 -24 -23 -23 -23 -23 -23 -23 -22 -23 -22 -22 -21 -20 -19 -19 -17 -17 -17 -17 -15 -12 -10 -12 -12 -12 -12 -11 -10 -10 -10
-19 -19 -20 -21 -21 -22 -23 -23 -24 -24 -24 -24 -24 -24 -24 -23 -24 -23 -23 -23 -23 -23 -23 -22 -23 -22 -21 -21 -19 -19 -18 -17 -17 -16 -13 -10 -11 -13 -12 -12 -12 -11 -10 -10 -10
-19 -19 -19 -20 -21 -22 -22 -23 -23 -23 -24 -24 -24 -24 -24 -23 -23 -23 -23 -23 -23 -23 -23 -23 -22 -22 -22 -21 -20 -19 -19 -17 -17 -14 -12 -12 -12 -12 -12 -12 -11 -10 -10 -10 -10
-19 -19 -20 -20 -21 -21 -22 -23 -23 -23 -23 -24 -24 -24 -24 -23 -23 -23 -23 -23 -23 -23 -22 -22 -22 -21 -21 -21 -20 -19 -19 -18 -16 -14 -10 -12 -12 -12 -12 -10 -11 -10 -11 -11 -10
-19 -19 -19 -19 -20 -21 -22 -23 -23 -23 -24 -23 -23 -23 -24 -23 -23 -23 -23 -23 -23 -22 -22 -22 -21 -21 -20 -20 -20 -19 -18 -18 -17 -15 -12 -13 -12 -13 -13 -10 -12 -11 -11 -11 -11
Height
5789 5788 5787 5787 5788 5789 5790 5791 5792 5793 5794 5797 5799 5802 5805 5809 5813 5817 5823 5827 5824 5827 5831 5833 5836 5840 5841 5844 5846 5846 5842 5849 5858 5862 5868 5869 5863 5868 5866 5871 5868 5866 5872 5871 5868
5783 5782 5782 5781 5780 5780 5780 5780 5781 5783 5785 5788 5789 5792 5793 5798 5802 5807 5816 5814 5816 5817 5819 5823 5825 5826 5829 5834 5834 5837 5838 5842 5855 5856 5856 5859 5857 5861 5861 5866 5864 5864 5862 5864 5864
5777 5776 5775 5774 5774 5773 5773 5773 5773 5773 5774 5776 5778 5781 5783 5787 5791 5796 5798 5804 5806 5805 5810 5811 5815 5817 5819 5823 5827 5830 5829 5841 5845 5848 5848 5849 5849 5854 5855 5857 5856 5859 5860 5856 5854
5772 5770 5768 5767 5766 5765 5764 5764 5763 5764 5765 5766 5768 5769 5771 5776 5780 5781 5785 5790 5795 5796 5798 5801 5804 5805 5809 5812 5818 5816 5821 5823 5833 5837 5839 5842 5845 5844 5846 5846 5849 5852 5848 5851 5849
5764 5762 5761 5759 5758 5756 5755 5754 5754 5753 5754 5755 5756 5758 5760 5764 5771 5767 5771 5776 5780 5782 5786 5789 5791 5795 5796 5802 5807 5807 5814 5815 5822 5826 5828 5832 5834 5836 5837 5841 5844 5845 5844 5844 5843
5758 5755 5752 5750 5748 5746 5745 5743 5742 5742 5742 5742 5743 5745 5749 5754 5755 5755 5756 5762 5767 5770 5774 5775 5781 5784 5786 5786 5791 5804 5801 5805 5808 5813 5818 5820 5822 5826 5829 5835 5834 5836 5838 5838 5837
5750 5747 5744 5741 5739 5737 5734 5731 5730 5729 5729 5730 5731 5732 5738 5744 5738 5743 5743 5749 5754 5757 5762 5765 5766 5766 5773 5777 5782 5785 5788 5792 5797 5803 5805 5812 5808 5816 5824 5825 5824 5824 5826 5827 5827
5743 5739 5736 5733 5729 5725 5722 5719 5717 5716 5714 5715 5716 5719 5724 5722 5726 5728 5731 5734 5739 5744 5747 5751 5752 5756 5758 5763 5768 5772 5774 5777 5791 5796 5800 5806 5796 5809 5814 5814 5810 5812 5814 5815 5815
5734 5730 5726 5722 5718 5714 5709 5704 5701 5701 5699 5699 5699 5703 5708 5708 5709 5713 5717 5720 5723 5728 5731 5735 5738 5742 5747 5752 5756 5761 5762 5769 5781 5791 5794 5793 5782 5797 5805 5804 5801 5804 5807 5806 5807
5727 5722 5717 5713 5707 5702 5695 5688 5685 5682 5681 5681 5681 5687 5685 5686 5691 5696 5700 5703 5707 5712 5717 5720 5722 5727 5737 5741 5744 5754 5762 5766 5770 5781 5780 5780 5779 5786 5794 5790 5793 5796 5797 5798 5797
5718 5713 5706 5699 5691 5683 5676 5668 5664 5661 5661 5660 5660 5662 5664 5664 5669 5675 5680 5686 5689 5695 5700 5700 5703 5720 5737 5740 5742 5746 5746 5752 5758 5765 5770 5771 5770 5777 5785 5781 5782 5786 5788 5788 5786
5708 5700 5692 5683 5674 5663 5652 5641 5633 5628 5639 5629 5633 5637 5641 5640 5650 5659 5660 5668 5672 5677 5679 5681 5700 5723 5722 5723 5721 5730 5737 5742 5750 5755 5761 5765 5760 5766 5775 5775 5776 5780 5780 5780 5780
5698 5690 5681 5672 5657 5642 5627 5615 5606 5603 5604 5604 5603 5609 5615 5620 5630 5638 5639 5646 5652 5656 5658 5667 5700 5702 5700 5704 5708 5722 5727 5736 5741 5744 5752 5752 5746 5756 5764 5768 5772 5767 5773 5771 5774
5688 5680 5670 5656 5643 5625 5609 5599 5593 5590 5592 5594 5591 5593 5594 5601 5607 5611 5619 5625 5633 5638 5641 5656 5680 5681 5681 5689 5701 5709 5721 5726 5730 5732 5737 5744 5735 5745 5758 5761 5763 5765 5761 5767 5768
5680 5671 5659 5645 5630 5616 5600 5590 5588 5587 5588 5590 5588 5591 5590 5592 5594 5597 5602 5606 5614 5618 5625 5659 5659 5659 5663 5684 5685 5703 5709 5712 5719 5721 5727 5732 5730 5743 5750 5751 5758 5755 5757 5760 5759
5673 5664 5653 5641 5631 5617 5599 5590 5589 5590 5589 5587 5585 5584 5586 5586 5586 5592 5596 5596 5598 5601 5614 5637 5637 5637 5654 5669 5669 5686 5694 5699 5706 5710 5710 5727 5727 5731 5743 5749 5748 5749 5752 5753 5752
5668 5660 5649 5640 5631 5620 5610 5602 5598 5591 5589 5587 5584 5584 5584 5585 5585 5585 5588 5592 5595 5595 5604 5612 5615 5626 5640 5649 5658 5670 5678 5684 5691 5694 5706 5723 5719 5727 5741 5743 5739 5743 5744 5745 5744
5665 5655 5647 5637 5630 5619 5612 5605 5598 5595 5591 5588 5586 5584 5581 5580 5582 5580 5580 5581 5587 5591 5593 5595 5603 5617 5630 5634 5645 5653 5661 5669 5679 5688 5702 5711 5705 5718 5735 5734 5733 5736 5736 5738 5736
5664 5653 5644 5636 5625 5617 5611 5603 5596 5590 5584 5581 5582 5580 5578 5578 5574 5576 5577 5581 5584 5583 5588 5586 5591 5601 5606 5619 5630 5645 5647 5669 5671 5679 5687 5700 5706 5716 5724 5728 5728 5731 5730 5733 5733
5662 5653 5640 5631 5622 5614 5608 5601 5594 5588 5583 5580 5574 5573 5573 5574 5572 5572 5571 5578 5580 5580 5581 5582 5586 5593 5603 5607 5614 5625 5648 5652 5657 5667 5676 5690 5698 5706 5719 5720 5724 5725 5724 5728 5729
5656 5650 5639 5629 5620 5612 5605 5600 5593 5588 5583 5579 5572 5571 5571 5572 5570 5569 5571 5574 5574 5575 5575 5576 5578 5594 5591 5595 5608 5621 5631 5637 5650 5660 5669 5683 5691 5707 5710 5712 5718 5721 5723 5725 5726
5652 5645 5635 5625 5617 5609 5602 5596 5591 5586 5581 5576 5573 5571 5569 5569 5569 5567 5569 5567 5567 5569 5570 5572 5574 5577 5580 5589 5598 5604 5617 5631 5636 5652 5663 5676 5686 5698 5704 5708 5712 5715 5719 5723 5722
5649 5641 5632 5623 5615 5607 5600 5593 5588 5584 5579 5575 5571 5569 5569 5568 5565 5563 5563 5563 5565 5565 5566 5566 5565 5564 5572 5584 5593 5597 5610 5621 5632 5644 5655 5669 5686 5691 5695 5703 5708 5708 5716 5719 5719
5646 5639 5632 5622 5613 5604 5599 5592 5588 5583 5578 5574 5570 5568 5568 5566 5564 5560 5559 5559 5560 5560 5560 5560 5560 5561 5565 5571 5578 5586 5599 5606 5617 5630 5649 5660 5681 5686 5692 5701 5702 5705 5710 5714 5716
5643 5635 5627 5620 5614 5604 5596 5589 5585 5580 5576 5572 5570 5567 5564 5562 5559 5557 5556 5557 5557 5557 5557 5557 5556 5557 5561 5565 5569 5580 5589 5601 5607 5622 5637 5657 5675 5683 5688 5691 5697 5704 5708 5710 5712
5641 5635 5628 5620 5612 5604 5594 5588 5582 5578 5574 5571 5567 5563 5559 5556 5553 5551 5551 5553 5554 5555 5555 5555 5556 5557 5560 5564 5567 5575 5587 5595 5607 5619 5635 5653 5664 5674 5684 5688 5692 5698 5703 5705 5709
5639 5632 5626 5620 5612 5603 5593 5585 5581 5576 5573 5569 5565 5561 5556 5551 5546 5545 5547 5549 5552 5553 5553 5554 5556 5555 5556 5562 5567 5574 5590 5597 5610 5620 5636 5648 5659 5664 5673 5674 5677 5687 5696 5701 5705
Wind_Speed
25 26 27 30 32 34 35 35 35 38 37 46 46 53 62 61 55 57 50 47 52 55 55 50 49 47 45 46 45 42 52 51 44 41 38 30 39 36 35 19 24 31 27 30 37
26 27 28 30 31 31 33 37 40 39 40 43 46 49 49 62 68 67 52 51 54 52 56 55 62 60 58 58 55 56 64 59 42 39 43 34 38 39 27 33 30 29 31 29 33
28 29 30 31 32 34 34 34 36 40 46 45 45 47 49 50 57 66 69 62 60 64 66 64 62 57 58 56 56 59 62 51 48 41 41 39 40 40 35 34 29 29 27 32 32
34 35 36 36 36 37 37 38 38 39 40 44 52 52 51 50 53 55 58 72 70 68 64 63 63 61 62 63 58 59 55 52 47 44 40 39 38 44 43 44 44 41 36 36 35
34 35 37 39 41 41 42 42 43 43 43 44 45 47 52 53 48 54 56 61 63 66 71 71 72 63 64 61 53 58 53 52 49 45 45 45 45 46 48 46 45 45 45 46 51
37 38 40 40 41 42 43 45 45 45 46 47 48 48 48 47 50 52 56 55 57 59 60 64 72 71 69 71 66 57 56 56 54 55 54 52 52 50 49 44 46 52 54 54 54
35 37 39 40 41 43 45 46 48 49 50 50 49 50 49 48 55 54 58 56 54 54 53 53 58 67 71 72 72 69 66 67 64 60 57 54 56 46 46 54 57 47 44 52 49
33 35 36 39 42 44 46 48 49 50 51 53 53 53 50 54 54 56 57 58 58 57 57 57 59 58 60 64 72 76 76 75 63 62 59 55 49 48 48 45 45 42 40 41 41
34 36 40 43 46 48 51 54 55 56 57 56 56 54 54 55 56 56 57 59 60 59 60 61 62 61 60 59 60 61 67 65 56 53 52 59 58 47 38 42 40 37 35 35 33
37 40 42 44 46 49 53 55 57 60 61 62 62 59 60 61 60 60 59 59 61 63 63 63 64 63 61 61 59 55 52 51 48 46 48 49 50 41 32 36 33 32 33 31 30
38 39 44 50 54 56 60 62 64 67 61 61 63 65 65 66 64 64 63 62 63 62 64 69 70 61 49 54 55 55 55 49 47 46 45 44 47 42 31 34 34 32 31 28 34
41 47 51 54 58 63 67 70 72 72 66 57 64 61 63 63 67 65 66 64 65 66 67 71 63 51 56 58 62 58 55 51 48 48 44 41 45 42 32 33 35 32 29 32 35
43 49 52 56 60 65 63 58 52 45 55 50 53 61 60 60 60 61 64 64 66 67 69 68 55 58 64 65 65 57 55 50 48 52 44 47 49 45 34 31 28 36 31 35 29
46 50 53 58 62 59 50 41 33 30 23 11 18 18 31 52 55 54 56 59 60 61 63 65 58 61 64 66 64 59 55 54 53 55 47 45 55 46 33 29 31 31 36 27 24
47 50 54 59 62 55 45 27 20 15 8 8 9 9 7 11 22 36 48 54 56 54 58 55 60 63 67 60 64 58 56 56 55 55 52 51 51 27 30 29 23 31 30 24 23
45 50 52 51 48 40 33 17 10 11 9 7 8 13 4 16 16 23 14 31 43 42 54 58 58 60 61 60 65 60 61 57 52 53 56 43 50 24 26 23 28 31 24 25 29
45 49 50 43 40 35 24 16 20 10 12 17 15 14 18 20 11 12 21 19 15 17 37 51 52 57 57 62 61 60 62 59 58 57 53 42 48 35 20 21 23 19 23 24 28
45 48 47 41 36 34 27 22 27 17 19 18 19 19 25 26 20 17 12 16 15 17 19 39 47 53 56 58 59 62 64 66 64 62 51 48 50 40 18 22 15 15 20 19 24
42 45 46 42 35 34 31 28 26 21 28 27 23 19 14 15 23 26 24 11 19 23 23 28 38 36 51 59 56 56 64 60 62 60 55 51 45 40 33 34 12 11 16 12 13
42 41 44 43 35 32 32 30 24 18 21 23 27 18 13 10 13 8 17 23 26 29 36 34 37 33 37 57 64 60 54 58 60 59 59 49 48 44 23 23 10 19 16 12 9
43 43 43 42 35 31 30 31 24 20 19 20 21 5 12 7 16 18 15 12 17 21 25 29 28 31 40 45 53 58 56 57 61 56 53 50 45 23 20 17 15 17 11 9 12
40 43 44 44 37 32 31 24 24 22 20 18 10 10 10 7 6 13 11 20 13 19 19 20 21 28 40 48 44 58 60 51 53 60 53 50 43 22 7 16 23 16 14 15 19
36 40 41 42 42 32 31 22 24 24 21 16 14 10 12 11 6 14 5 10 17 16 21 24 26 28 31 37 35 50 63 55 48 49 52 52 38 27 24 17 17 26 15 18 23
32 36 38 41 43 38 31 25 21 22 18 15 14 9 10 14 18 20 18 11 9 11 14 14 19 25 27 39 47 42 68 58 53 56 57 55 38 16 17 18 26 28 24 23 20
30 35 39 41 41 39 35 25 19 21 15 17 13 17 14 11 16 22 22 19 14 8 14 13 9 16 23 38 39 45 67 61 61 60 60 49 34 24 13 21 24 23 18 20 14
30 32 34 36 42 42 37 28 25 16 21 15 17 15 15 20 16 15 16 17 16 9 11 7 3 8 17 31 40 43 60 64 63 62 58 45 39 18 19 21 24 20 16 19 14
29 28 32 34 40 43 40 31 23 20 20 19 18 19 19 17 17 15 16 12 9 8 9 3 5 7 3 22 40 42 51 54 58 59 53 52 40 32 29 29 30 30 24 25 18
Wind_Direction
277 276 274 270 265 260 258 258 259 259 256 241 245 241 239 240 241 240 238 233 235 240 232 233 230 238 236 240 241 237 246 244 245 249 258 237 240 236 234 252 240 260 256 249 265
270 271 271 271 272 271 266 259 254 253 255 251 245 245 248 240 238 239 239 237 238 239 253 251 247 243 250 241 245 244 250 253 256 256 254 248 254 250 244 253 253 244 249 256 265
277 276 273 271 269 267 265 264 260 253 248 247 249 251 249 247 242 241 240 240 244 249 249 255 248 249 250 251 254 262 254 260 252 259 256 260 247 254 249 245 253 250 266 259 256
282 280 278 275 273 272 271 269 263 257 254 251 246 245 245 244 241 241 240 239 244 246 247 248 251 251 252 254 258 262 263 262 261 261 254 257 263 260 251 254 256 257 267 267 281
284 282 281 280 279 275 272 269 268 266 261 255 251 249 248 245 245 249 242 241 244 246 247 248 245 247 253 254 250 255 253 251 257 254 256 258 259 263 257 260 265 267 262 270 271
286 285 282 280 277 274 273 272 271 267 265 262 258 253 247 248 245 244 247 244 242 241 244 247 242 246 251 250 251 250 248 248 250 253 254 255 261 258 254 260 264 266 264 266 268
293 292 290 287 284 282 280 276 271 268 266 263 261 259 255 250 247 244 246 245 244 244 242 243 244 245 249 247 248 249 251 252 253 257 259 259 265 268 269 265 274 276 267 266 274
302 301 297 294 290 288 285 281 277 273 270 266 262 260 257 254 250 248 245 246 245 244 245 244 243 245 248 248 247 248 250 257 256 258 263 262 270 270 271 274 272 275 276 282 284
308 305 302 298 295 292 287 283 279 276 273 270 266 262 257 255 252 249 247 245 244 243 242 243 244 243 244 247 249 248 252 257 260 262 268 263 265 271 271 272 270 273 278 280 284
313 309 303 300 294 289 284 280 277 273 271 268 266 264 259 255 252 249 247 246 245 243 242 242 242 243 242 245 250 256 261 263 262 264 263 264 269 268 269 270 271 276 278 284 289
311 306 300 298 297 294 291 286 281 275 267 263 260 258 257 252 252 250 247 244 243 243 242 241 240 240 246 250 253 255 255 255 254 255 258 260 270 268 260 272 278 277 287 284 282
316 313 311 311 309 306 299 293 285 279 269 266 262 254 251 251 249 248 247 246 245 243 241 241 241 243 242 243 244 245 249 253 256 256 257 260 264 267 258 262 266 276 277 281 284
324 324 324 322 323 318 308 298 293 288 279 277 267 254 250 246 245 243 243 240 241 240 240 240 239 239 238 239 242 243 246 249 253 255 255 258 257 264 256 263 274 275 286 281 297
335 334 336 341 339 334 324 313 308 311 320 297 288 283 270 251 241 239 239 242 238 238 237 239 236 237 237 236 238 239 242 245 247 250 251 252 262 257 258 258 261 275 272 285 289
344 342 347 347 351 340 327 318 309 308 165 242 192 136 312 285 222 235 238 232 237 239 237 238 236 233 233 233 236 235 236 238 241 246 249 250 256 253 258 258 263 260 271 285 294
350 349 351 352 355 352 353 9 52 33 3 343 342 341 296 228 216 221 227 242 235 239 234 231 231 229 231 230 231 231 231 233 236 239 241 239 253 248 250 267 262 269 283 278 289
352 353 352 353 353 3 1 360 4 358 351 351 343 308 310 310 253 215 194 237 238 263 236 229 224 228 229 226 227 225 226 228 229 232 241 240 247 257 256 272 278 271 276 282 278
350 351 352 350 347 359 359 317 321 328 314 326 312 304 304 302 247 214 231 206 217 214 226 224 229 223 223 225 226 221 220 225 229 235 240 238 243 247 254 265 290 298 285 275 280
350 349 351 347 348 352 350 353 350 342 323 318 294 292 264 283 247 234 246 230 217 236 245 241 228 221 216 219 218 222 220 222 227 228 233 234 241 249 246 257 281 295 281 299 271
347 352 349 348 349 350 352 346 356 343 348 323 327 295 266 259 242 276 249 253 252 254 250 254 244 215 218 220 217 212 216 214 217 223 228 227 233 240 237 252 269 288 285 308 247
344 349 353 353 350 345 346 351 352 357 331 329 308 281 267 271 261 264 260 237 229 239 252 247 259 206 208 214 216 211 211 211 212 220 222 227 226 214 227 244 259 257 284 275 267
342 349 353 355 353 347 345 344 343 345 358 352 332 292 258 291 254 277 268 256 250 245 242 245 250 223 219 207 215 209 200 202 206 210 218 220 221 192 174 246 255 253 266 271 257
344 349 354 354 354 350 355 346 345 341 347 348 344 278 268 273 270 258 323 271 257 257 254 264 261 260 225 211 196 214 192 195 199 203 209 213 198 183 174 234 250 263 252 259 244
342 347 354 355 357 351 345 351 348 340 344 351 352 321 270 274 294 284 290 252 319 242 243 264 261 251 214 206 201 204 191 184 187 199 201 210 190 186 220 219 247 256 254 255 245
341 348 352 355 358 356 350 350 348 342 343 349 349 340 323 297 278 261 266 261 283 264 262 272 267 249 230 209 207 204 189 186 188 195 198 200 178 195 198 235 234 234 246 229 236
341 346 353 357 358 358 356 353 353 346 353 335 341 336 337 327 291 255 254 266 267 264 269 231 201 256 234 212 214 196 192 189 190 195 197 175 160 183 179 206 223 221 203 228 223
343 345 351 355 357 360 359 355 348 351 343 355 359 353 353 334 312 255 238 247 226 217 248 202 242 347 210 232 218 209 194 189 191 193 183 172 164 183 189 209 205 214 208 223 230